Weather History for Kalaeloa, HI

Change the Weather History Date:

Wednesday, March 20, 2013

  Actual Average (PHNL) Record (PHNL)
Temperature  
Mean Temperature 70 °F 75 °F  
Max Temperature 79 °F 81 °F 88 °F (1998)
Min Temperature 62 °F 68 °F 60 °F (1981)
Degree Days  
Heating Degree Days 0 0  
Month to date heating degree days 0  
Since 1 July heating degree days 0  
Cooling Degree Days 6 10  
Month to date cooling degree days 183  
Year to date cooling degree days 665  
Growing Degree Days 20 (Base 50)    
Moisture  
Dew Point 64 °F    
Average Humidity 78    
Maximum Humidity 94    
Minimum Humidity 64    
Precipitation  
Precipitation 0.00 in 0.06 in 1.69 in (1991)
Month to date precipitation 1.37  
Year to date precipitation 5.67  
Snow  
Snow 0.00 in - - ()
Month to date snowfall  
Since 1 July snowfall  
Snow Depth -    
Sea Level Pressure  
Sea Level Pressure 30.05 in    
Wind  
Wind Speed 3 mph (SE)    
Max Wind Speed 10 mph    
Max Gust Speed -    
Visibility 10 miles    
Events      
T = Trace of Precipitation, MM = Missing Value Source: NWS Daily Summary

Daily Weather History Graph

Daily Weather History Graph

Search for Another Location

Airport:

Trip Planner

Search our weather history database for the weather conditions in past years. The results will help you decide how hot, cold, wet, or windy it might be!

Date:

Astronomy

Mar. 20, 2013 Rise Set
Actual Time 6:35 AM HST 6:43 PM HST
Civil Twilight 6:13 AM HST 7:05 PM HST
Nautical Twilight 5:47 AM HST 7:31 PM HST
Astronomical Twilight 5:22 AM HST 7:57 PM HST
Moon 1:06 PM HST (3/20) 1:45 AM HST (3/20)
Length of Visible Light 12h 51m
Length of Day
12h 07m
First Quarter, 61% of the Moon is Illuminated
Mar 20
First Quarter
Mar 26
Full
Apr 2
Last Quarter
Apr 9
New
Apr 18
First Quarter

Hourly Weather History & Observations

Time (HST) Temp. Dew Point Humidity Pressure Visibility Wind Dir Wind Speed Gust Speed Precip Events Conditions
12:53 AM 68.0 °F 63.0 °F 84% 30.03 in 10.0 mi Calm Calm - N/A   Scattered Clouds
1:53 AM 66.0 °F 62.1 °F 87% 30.01 in 10.0 mi Calm Calm - N/A   Clear
2:53 AM 64.9 °F 62.1 °F 90% 30.00 in 10.0 mi Calm Calm - N/A   Clear
3:53 AM 64.0 °F 61.0 °F 90% 30.00 in 10.0 mi Calm Calm - N/A   Clear
4:28 AM 62.6 °F 60.8 °F 94% 29.99 in 10.0 mi Calm Calm - N/A   Scattered Clouds
4:53 AM 63.0 °F 60.1 °F 90% 30.01 in 10.0 mi ENE 3.5 mph - N/A   Partly Cloudy
5:53 AM 63.0 °F 60.1 °F 90% 30.02 in 10.0 mi ENE 3.5 mph - N/A   Clear
6:53 AM 63.0 °F 60.1 °F 90% 30.04 in 10.0 mi Calm Calm - N/A   Clear
7:53 AM 70.0 °F 63.0 °F 78% 30.06 in 10.0 mi Calm Calm - N/A   Clear
8:53 AM 75.0 °F 64.0 °F 69% 30.08 in 10.0 mi Variable 4.6 mph - N/A   Partly Cloudy
9:53 AM 77.0 °F 66.0 °F 69% 30.09 in 10.0 mi ESE 6.9 mph - N/A   Clear
10:53 AM 77.0 °F 64.9 °F 66% 30.09 in 10.0 mi SE 10.4 mph - N/A   Clear
11:53 AM 78.1 °F 64.9 °F 64% 30.07 in 10.0 mi SSE 8.1 mph - N/A   Clear
12:53 PM 77.0 °F 66.0 °F 69% 30.06 in 10.0 mi SSE 8.1 mph - N/A   Clear
1:53 PM 79.0 °F 66.9 °F 66% 30.04 in 10.0 mi SSE 8.1 mph - N/A   Clear
2:53 PM 78.1 °F 66.9 °F 68% 30.02 in 10.0 mi SSE 6.9 mph - N/A   Clear
3:53 PM 79.0 °F 66.9 °F 66% 30.01 in 10.0 mi SE 8.1 mph - N/A   Mostly Cloudy
4:53 PM 78.1 °F 66.0 °F 66% 30.02 in 10.0 mi SE 5.8 mph - N/A   Scattered Clouds
5:53 PM 75.9 °F 64.9 °F 69% 30.04 in 10.0 mi SE 4.6 mph - N/A   Clear
6:53 PM 75.0 °F 66.9 °F 76% 30.06 in 10.0 mi SE 10.4 mph - N/A   Partly Cloudy
7:53 PM 73.9 °F 64.9 °F 73% 30.07 in 10.0 mi SE 9.2 mph - N/A   Clear
8:53 PM 73.0 °F 66.0 °F 79% 30.09 in 10.0 mi ESE 4.6 mph - N/A   Clear
9:53 PM 72.0 °F 64.9 °F 78% 30.10 in 10.0 mi Calm Calm - N/A   Clear
10:53 PM 69.1 °F 64.9 °F 87% 30.10 in 10.0 mi Calm Calm - N/A   Clear
11:53 PM 68.0 °F 64.0 °F 87% 30.08 in 10.0 mi Calm Calm - N/A   Clear